Location: Владивосток
(43.1151°N, 131.8856°E)
Time: 06:22:06
(UTC+10:00)

ITAMSAT 1 - Pass Details

Date: 03 July 2022
Orbit: 784 x 795 km, 98.9° (Epoch: 09 August)

Event Time Altitude Azimuth Distance (km) Brightness Sun altitude
Rises 21:43:57 0° 217° (SW) 3,263 10.8 -7.8°
Reaches altitude 10° 21:47:42 10° 245° (WSW) 2,343 10.4 -8.3°
Maximum altitude 21:49:56 13° 271° (W) 2,158 10.7 -8.6°
Drops below altitude 10° 21:52:12 10° 297° (WNW) 2,353 11.5 -8.9°
Sets 21:56:00 0° 325° (NW) 3,292 12.9 -9.4°
